Miscellaneous Local Product
Issued by NWS North Platte, NE

Home | Current Version | Previous Version | Graphics & Text | Print | Product List | Glossary On
Versions: 1 2 3 4 5 6 7 8 9 10 11 12 13 14 15 16 17 18 19 20 21 22 23 24 25 26 27 28 29 30 31 32 33 34 35 36 37 38 39 40 41 42 43 44 45 46 47 48 49 50
000
AXUS43 KLBF 050210
MISLBF


WESTERN AND NORTH CENTRAL NEBRASKA HOURLY WEATHER ROUNDUP
NATIONAL WEATHER SERVICE NORTH PLATTE NE
800 PM CST WED MAR 04 2015

***STATIONS NOT REPORTING VARIABLES SUCH AS SKY/WEATHER OR
PRESSURE ARE PROVIDED BY THE NEBRASKA DEPARTMENT OF
ROADS...RAWS...AND APRS NETWORKS...AND ARE NOT UNDER
NATIONAL WEATHER SERVICE QUALITY CONTROL***

...OBSERVATIONS IN AND NEAR THE EASTERN PANHANDLE OF NEBRASKA...

CITY           SKY/WX    TMP DP  RH WIND       PRES   REMARKS
PINE RIDGE     CLEAR      3  -3  76 NE6       30.24R WCI  -8
CHADRON        CLOUDY    10   5  80 W7        30.23R WCI  -1
ALLIANCE       CLEAR     15   1  53 NW9       30.19R WCI   3
SIDNEY         CLEAR     15   4  61 NW6       30.20R WCI   6
WHITECLAY        N/A      9  -1  65 CALM        N/A
CRESCENT LAKE    N/A     15  -3  44 NW8         N/A  WCI   4
LISCO            N/A     21  -4  34 NW6         N/A  WCI  13
BIG SPRINGS      N/A     15   4  61 SW3         N/A
LEWELLEN         N/A     14  -7  38 W5          N/A  WCI   7
$$

...OBSERVATIONS IN NORTH CENTRAL NEBRASKA...

CITY           SKY/WX    TMP DP  RH WIND       PRES   REMARKS
VALENTINE      CLEAR      9   1  70 N6        30.30R WCI  -1
THEDFORD       CLEAR     14   2  59 NE3       30.28R
AINSWORTH      CLEAR      8   0  70 N5        30.30R WCI  -1
O`NEILL        CLEAR      8  -1  65 N3        30.35R
ORD            CLEAR     13  -3  49 N6        30.34R WCI   4
BROKEN BOW     CLEAR     11  -5  48 N6        30.30R WCI   1
BROWNLEE         N/A      6  -4  62 NE6         N/A  WCI  -5
SPRINGVIEW       N/A      8  -2  64 CALM        N/A
BREWSTER         N/A     17   6  63 N6          N/A  WCI   8
ROSE             N/A     17   9  71 N3          N/A
NEWPORT          N/A     17   7  67 NW5         N/A  WCI   9
SARGENT          N/A     17   2  51 CALM        N/A
COMSTOCK         N/A     19   1  45 E7          N/A  WCI   9
CHAMBERS         N/A      9 -11  40 N3          N/A
EWING            N/A      9  -2  61 CALM        N/A
$$

...OBSERVATIONS IN SOUTHWEST NEBRASKA AND FAR NORTHEAST COLORADO...

CITY           SKY/WX    TMP DP  RH WIND       PRES   REMARKS
WRAY           MOCLDY    21  11  64 CALM      30.25R
IMPERIAL         N/A     22   5  48 N3        30.26R
OGALLALA       CLEAR     18   4  54 N6        30.25R WCI  10
NORTH PLATTE   CLEAR     16  -2  45 N5        30.27R WCI   9
MCCOOK         MOCLDY    23   3  42 NW5       30.30R WCI  17
LEXINGTON      CLEAR     17   4  56 NE7       30.31R WCI   7
PAXTON           N/A     23   4  45 NW3         N/A
BRADY            N/A     18  -2  41 CALM        N/A
GOTHENBURG       N/A     18  -1  42 CALM        N/A
CALLAWAY         N/A     15  -1  50 NE6         N/A  WCI   6
$$

...NORTH PLATTE AREA...

CITY           SKY/WX    TMP DP  RH WIND       PRES   REMARKS
AIRPORT        CLEAR     16  -2  45 N5        30.27R WCI   9
DOWNTOWN         N/A     20  -1  40 N5G12       N/A  WCI  14
$$

...SOME WEATHER OBSERVATIONS FROM AROUND THE REGION...

CITY           SKY/WX    TMP DP  RH WIND       PRES   REMARKS
DENVER         PTCLDY    11   3  70 S12       30.17R WCI  -3
LARAMIE        PTCLDY     3  -7  63 SW3       30.05R
CHEYENNE       CLEAR     11  -4  51 NW7       30.10R WCI   0
SCOTTSBLUFF    CLEAR     17   4  56 NW5       30.20R WCI  10
RAPID CITY     CLEAR      4  -4  69 N7        30.22R WCI  -8
PIERRE         CLEAR      4  -8  57 N7        30.35R WCI  -8
WINNER         FAIR       8  -6  52 E3        30.34R
SIOUX FALLS    CLEAR      1  -7  68 NW7       30.38R WCI -12
OMAHA          PTCLDY    17   0  47 N12       30.41R WCI   4
GRAND ISLAND   CLEAR     14   2  58 N8        30.37R WCI   3
KANSAS CITY    CLOUDY    26   7  44 CALM      30.36R
WICHITA        CLOUDY    27   8  44 NE6       30.36R WCI  20
HAYS           CLEAR     21   1  42 NE6       30.33S WCI  14
LIBERAL        MOCLDY    23  12  63 N6        30.31R WCI  16
GOODLAND       CLEAR     19   9  65 CALM      30.26R
$$



USA.gov is the U.S. government's official web portal to all federal, state and local government web resources and services.